TITAN 3C TRANSTAGE R/B, 3692

Orbit data source: Space-Track

TITAN 3C TRANSTAGE R/B, 3692 is space debris in GEO originally from a launch on Sun, 09 Feb 1969 UTC launched from the Air Force Eastern Test Range (AFETR). Debris objects in space refer to the collection of defunct objects orbiting the Earth. Examples of debris include non-operational satellites, rocket bodies, and fragments generated from explosions, collisions, or faulty payload assembly.

Not visible in the next 10 days
Identifier
3692, 1969-013B
Orbit
GEO
Last TLE update
10 hours ago
Origin
Manufacturer
Martin Marietta
Mission
Spacecraft
Bus & Motor
TRANSTAGE, Unknown motor
Mass
2,028 kg wet, 2,028 kg dry
Launch date (UTC)
1969-02-09 (56 years ago)
Launch vehicle
Unknown
Launch site
Air Force Eastern Test Range (AFETR)
Object type
Payload
Rocket body
Debris
Shape & HBR
Cyl + 2 Nozzle, 4.6 m
Radar Cross Section
14.974 m², Large (>1 m²)

Expand to show TLE details & history

TLE from 10 hours ago
0 TITAN 3C TRANSTAGE R/B
1 03692U 69013B   25128.84637168 -.00000228  00000-0  00000-0 0  9993
2 03692   0.2707  57.1218 0169555  51.6972 243.9917  0.97536829 38378
Epoch: 2025-05-08T20:18Z
Definitive object data (Epoch: 2025-05-08T20:18:46.513Z)
Latitude
-0.22395°
Longitude
179.47641°
Altitude
36,896.403 km
Speed
3.023 km/s
True Right ascension
23h 24m 19s
True Declination
0° 13' 25"
Sunlit
Object was in daylight at TLE epoch
Visualization TLE readout
Latitude
0.25067°
Longitude
-29.06652°
Altitude
35,964.695 km
Speed
3.09 km/s
Apparent Right ascension
09h 03m 45s
Apparent Declination
-5° 20' 58"
Sunlit
Object is in daylight
Visualization observer readout
Local Sidereal Time
14:37:16
Azimuth
261.649° W
Elevation
1.618°
Doppler factor
1
Orbital elements
Apogee altitude
37,300.46 km
Perigee altitude
35,843.97 km
Semi-major axis
42,950.352 km
Eccentricity
0.0169555
Inclination
0.2707°
RAAN
57.1218°
Arg. of periapsis
51.6972°
True anomaly
242.26185°
Mean anomaly
243.9917°
Eccentric anomaly
243.12514°
Mean motion
0.24383 °/min
BSTAR
Unknown
Orbital period
1476.42 mins
Loading historical data...
3692 neighbors
Loading maneuver chart data...
Loading SW <> Apogee altitude chart data...

TITAN 3C TRANSTAGE R/B Visibility forecast

Observer location: undefined°, undefined°

TITAN 3C TRANSTAGE R/B is not visible in the next 10 days
Span
Click to sort rows by Start time (UTC) header in descending order
Start Az.
Max El. time (UTC)
Max El. Az.
Max El.
End time (UTC)
End Az.
|